Location: Recife
(8.0585°S, 34.8848°W)
Time: 19:43:35
(UTC-03:00)

Explorer 11/Cluster Stage 4 - Pass Details

Date: 15 April 2026
Orbit: 463 x 1174 km, 28.8° (Epoch: 19 May)

Event Time Altitude Azimuth Distance (km) Brightness Sun altitude
Rises 17:52:09 0° 323° (NW) 3,679 10.8 -9.4°
Reaches altitude 10° 17:55:36 10° 337° (NNW) 2,599 9.7 -10.2°
Maximum altitude 18:00:20 23° 27° (NNE) 1,686 8.1 -11.4°
Enters shadow 18:03:42 13° 71° (ENE) 2,038 8.2 -12.2°
